User: anonymous   Login
Location: Brede
(50.9167°N, 0.6000°E)
Time: 18:23:21
(UTC+00:00)
Language:

Cosmos 2237 Rocket - Orbit

View from above orbital plane
View from above orbital plane
View from above satellite
View from above satellite

Ground track
Ground track

The orbit data is extracted from the following two-line orbital elements,

1 22566U 93016B   20298.48558310 -.00000034  00000-0  70990-5 0  9993
2 22566  71.0094  14.9000 0008242  64.0774 296.1197 14.14962892424597
Epoch (UTC): 24 October 2020 11:39:14
Eccentricity: 0.0008242
inclination: 71.0094°
perigee height: 836 km
apogee height: 848 km
right ascension of ascending node: 14.9000°
argument of perigee: 64.0774°
revolutions per day: 14.14962892
mean anomaly at epoch: 296.1197°
orbit number at epoch: 42459

The dashed part of the orbit path shows where the satellite is in the earth's shadow,  

DLR